,,Stat6,,Stat2,,Stat8,,Stat9,,Stat10,,Wind1,,Wind1,
time,status,PA1M_AVG,status,PR1M_SUM,status,RH1M_AVG,status,SR1M_AVG,status,TA1M_AVG,status,W1dAve1m,status,W1sAve1m,
2008-08-22, 00:00:00,VALID,917.989,VALID,0,VALID,100,VALID,-0.0169808,VALID,18.92,VALID,16,VALID,1.64418,
2008-08-22, 00:01:00,VALID,917.954,VALID,0,VALID,100,VALID,0,VALID,18.897,VALID,7,VALID,2.24684,
2008-08-22, 00:02:00,VALID,917.94,VALID,0,VALID,100,VALID,-0.0169808,VALID,18.8841,VALID,9,VALID,1.86147,
2008-08-22, 00:03:00,VALID,917.935,VALID,0,VALID,100,VALID,-0.0169808,VALID,18.8873,VALID,10,VALID,2.02504,
2008-08-22, 00:04:00,VALID,917.923,VALID,0,VALID,100,VALID,-0.0339617,VALID,18.8706,VALID,11,VALID,1.78416,
2008-08-22, 00:05:00,VALID,917.921,VALID,0,VALID,100,VALID,-0.0169808,VALID,18.8771,VALID,2,VALID,1.3892,
2008-08-22, 00:06:00,VALID,917.927,VALID,0,VALID,100,VALID,0.0169808,VALID,18.8769,VALID,12,VALID,1.66074,
2008-08-22, 00:07:00,VALID,917.912,VALID,0,VALID,100,VALID,-0.0339617,VALID,18.8739,VALID,359,VALID,1.44085,
2008-08-22, 00:08:00,VALID,917.909,VALID,0,VALID,100,VALID,-0.0169808,VALID,18.8743,VALID,1,VALID,1.64589,
2008-08-22, 00:09:00,VALID,917.917,VALID,0,VALID,100,VALID,-0.0169808,VALID,18.8549,VALID,9,VALID,1.23328,
2008-08-22, 00:10:00,VALID,917.907,VALID,0,VALID,100,VALID,-0.0169808,VALID,18.8711,VALID,12,VALID,1.13699,
2008-08-22, 00:11:00,VALID,917.906,VALID,0,VALID,100,VALID,0,VALID,18.8676,VALID,9,VALID,1.29439,
2008-08-22, 00:12:00,VALID,917.898,VALID,0,VALID,100,VALID,0,VALID,18.8674,VALID,294,VALID,0.931021,
2008-08-22, 00:13:00,VALID,917.874,VALID,0,VALID,100,VALID,-0.0169808,VALID,18.8447,VALID,22,VALID,1.92988,
2008-08-22, 00:14:00,VALID,917.87,VALID,0,VALID,100,VALID,0,VALID,18.8382,VALID,3,VALID,1.15207,
2008-08-22, 00:15:00,VALID,917.864,VALID,0,VALID,100,VALID,-0.0339617,VALID,18.8352,VALID,1,VALID,1.24143,
2008-08-22, 00:16:00,VALID,917.847,VALID,0,VALID,100,VALID,-0.0339617,VALID,18.8317,VALID,351,VALID,0.870722,
2008-08-22, 00:17:00,VALID,917.822,VALID,0,VALID,100,VALID,-0.0169808,VALID,18.8284,VALID,6,VALID,0.949219,
2008-08-22, 00:18:00,VALID,917.79,VALID,0,VALID,100,VALID,-0.0509425,VALID,18.8155,VALID,17,VALID,2.0307,
2008-08-22, 00:19:00,VALID,917.776,VALID,0,VALID,100,VALID,0,VALID,18.8252,VALID,11,VALID,1.90359,
2008-08-22, 00:20:00,VALID,917.759,VALID,0,VALID,100,VALID,0,VALID,18.8127,VALID,19,VALID,1.94895,
2008-08-22, 00:21:00,VALID,917.74,VALID,0,VALID,100,VALID,0.0169808,VALID,18.809,VALID,24,VALID,2.16895,
2008-08-22, 00:22:00,VALID,917.732,VALID,0,VALID,100,VALID,-0.0169808,VALID,18.7928,VALID,28,VALID,2.12862,
2008-08-22, 00:23:00,VALID,917.747,VALID,0,VALID,100,VALID,0,VALID,18.7865,VALID,25,VALID,1.67454,
2008-08-22, 00:24:00,VALID,917.753,VALID,0,VALID,100,VALID,-0.0169808,VALID,18.7993,VALID,40,VALID,1.21966,
2008-08-22, 00:25:00,VALID,917.775,VALID,0,VALID,100,VALID,-0.0169808,VALID,18.7865,VALID,29,VALID,1.38377,
2008-08-22, 00:26:00,VALID,917.789,VALID,0,VALID,100,VALID,-0.0169808,VALID,18.787,VALID,27,VALID,1.68655,
2008-08-22, 00:27:00,VALID,917.816,VALID,0,VALID,100,VALID,0,VALID,18.7701,VALID,37,VALID,1.94259,
2008-08-22, 00:28:00,VALID,917.855,VALID,0,VALID,100,VALID,-0.0339617,VALID,18.7833,VALID,38,VALID,1.05078,
2008-08-22, 00:29:00,VALID,917.854,VALID,0,VALID,100,VALID,-0.0169808,VALID,18.7828,VALID,360,VALID,0.928961,
2008-08-22, 00:30:00,VALID,917.864,VALID,0,VALID,100,VALID,0,VALID,18.7928,VALID,28,VALID,1.32698,
2008-08-22, 00:31:00,VALID,917.863,VALID,0,VALID,100,VALID,0.0169808,VALID,18.7668,VALID,10,VALID,1.09263,
2008-08-22, 00:32:00,VALID,917.874,VALID,0,VALID,100,VALID,-0.0339617,VALID,18.7573,VALID,30,VALID,1.48274,
2008-08-22, 00:33:00,VALID,917.865,VALID,0,VALID,100,VALID,0,VALID,18.7474,VALID,45,VALID,1.5067,
2008-08-22, 00:34:00,VALID,917.866,VALID,0.2,VALID,100,VALID,0,VALID,18.7501,VALID,13,VALID,1.27046,
2008-08-22, 00:35:00,VALID,917.85,VALID,0,VALID,100,VALID,0.0169808,VALID,18.7439,VALID,19,VALID,1.3254,
2008-08-22, 00:36:00,VALID,917.857,VALID,0,VALID,100,VALID,0,VALID,18.7636,VALID,31,VALID,0.668255,
2008-08-22, 00:37:00,VALID,917.842,VALID,0,VALID,100,VALID,-0.0169808,VALID,18.7863,VALID,35,VALID,0.0928199,
2008-08-22, 00:38:00,VALID,917.825,VALID,0,VALID,100,VALID,0,VALID,18.8122,VALID,30,VALID,0.496804,
2008-08-22, 00:39:00,VALID,917.825,VALID,0,VALID,100,VALID,-0.0169808,VALID,18.8157,VALID,44,VALID,0.624306,
2008-08-22, 00:40:00,VALID,917.817,VALID,0,VALID,100,VALID,0,VALID,18.8257,VALID,332,VALID,0.984375,
2008-08-22, 00:41:00,VALID,917.829,VALID,0,VALID,100,VALID,-0.0169808,VALID,18.7765,VALID,314,VALID,0.933036,
2008-08-22, 00:42:00,VALID,917.843,VALID,0,VALID,100,VALID,0,VALID,18.7538,VALID,351,VALID,0.727653,
2008-08-22, 00:43:00,VALID,917.839,VALID,0,VALID,100,VALID,0,VALID,18.7409,VALID,356,VALID,0.376662,
2008-08-22, 00:44:00,VALID,917.845,VALID,0,VALID,100,VALID,-0.0169808,VALID,18.7441,VALID,8,VALID,0.42081,
2008-08-22, 00:45:00,VALID,917.86,VALID,0,VALID,100,VALID,-0.0169808,VALID,18.7835,VALID,10,VALID,0.283612,
2008-08-22, 00:46:00,VALID,917.863,VALID,0.2,VALID,100,VALID,-0.0169808,VALID,18.7768,VALID,29,VALID,0.0887784,
2008-08-22, 00:47:00,VALID,917.864,VALID,0,VALID,100,VALID,-0.0169808,VALID,18.79,VALID,20,VALID,0.511052,
2008-08-22, 00:48:00,VALID,917.849,VALID,0,VALID,100,VALID,0,VALID,18.793,VALID,9,VALID,0,
2008-08-22, 00:49:00,VALID,917.836,VALID,0,VALID,100,VALID,0.0169808,VALID,18.783,VALID,9,VALID,0,
2008-08-22, 00:50:00,VALID,917.838,VALID,0,VALID,100,VALID,-0.0169808,VALID,18.7765,VALID,9,VALID,0,
2008-08-22, 00:51:00,VALID,917.82,VALID,0,VALID,100,VALID,-0.0849042,VALID,18.7972,VALID,3,VALID,1.12835,
2008-08-22, 00:52:00,VALID,917.817,VALID,0,VALID,100,VALID,-0.101885,VALID,18.7845,VALID,13,VALID,1.15534,
2008-08-22, 00:53:00,VALID,917.813,VALID,0,VALID,100,VALID,-0.101885,VALID,18.7974,VALID,21,VALID,0.702943,
2008-08-22, 00:54:00,VALID,917.801,VALID,0,VALID,100,VALID,-0.118866,VALID,18.8069,VALID,11,VALID,0.0102796,
2008-08-22, 00:55:00,VALID,917.771,VALID,0.2,VALID,100,VALID,-0.101885,VALID,18.7879,VALID,332,VALID,0,
2008-08-22, 00:56:00,VALID,917.774,VALID,0,VALID,100,VALID,-0.118866,VALID,18.7553,VALID,331,VALID,0,
2008-08-22, 00:57:00,VALID,917.759,VALID,0,VALID,100,VALID,-0.118866,VALID,18.7585,VALID,331,VALID,0,
2008-08-22, 00:58:00,VALID,917.735,VALID,0,VALID,100,VALID,-0.135847,VALID,18.7712,VALID,334,VALID,0,
2008-08-22, 00:59:00,VALID,917.72,VALID,0,VALID,100,VALID,-0.101885,VALID,18.7812,VALID,10,VALID,0,
2008-08-22, 01:00:00,VALID,917.692,VALID,0,VALID,100,VALID,-0.135847,VALID,18.775,VALID,10,VALID,0,
2008-08-22, 01:01:00,VALID,917.67,VALID,0,VALID,100,VALID,-0.101885,VALID,18.7747,VALID,10,VALID,0,
2008-08-22, 01:02:00,VALID,917.642,VALID,0,VALID,100,VALID,-0.101885,VALID,18.7618,VALID,8,VALID,0,
2008-08-22, 01:03:00,VALID,917.625,VALID,0,VALID,100,VALID,-0.101885,VALID,18.7815,VALID,7,VALID,0.326219,
2008-08-22, 01:04:00,VALID,917.595,VALID,0,VALID,100,VALID,-0.118866,VALID,18.8042,VALID,24,VALID,0.618253,
2008-08-22, 01:05:00,VALID,917.577,VALID,0,VALID,100,VALID,-0.118866,VALID,18.8169,VALID,11,VALID,0.682884,
2008-08-22, 01:06:00,VALID,917.557,VALID,0,VALID,100,VALID,-0.0679233,VALID,18.8157,VALID,354,VALID,0.665737,
2008-08-22, 01:07:00,VALID,917.543,VALID,0,VALID,100,VALID,-0.0169808,VALID,18.8287,VALID,4,VALID,0.196039,
2008-08-22, 01:08:00,VALID,917.531,VALID,0,VALID,100,VALID,-0.0169808,VALID,18.8347,VALID,6,VALID,0.0361555,
2008-08-22, 01:09:00,VALID,917.53,VALID,0,VALID,100,VALID,-0.0339617,VALID,18.8581,VALID,22,VALID,0.542411,
2008-08-22, 01:10:00,VALID,917.538,VALID,0.2,VALID,100,VALID,-0.0169808,VALID,18.8417,VALID,27,VALID,1.18133,
2008-08-22, 01:11:00,VALID,917.531,VALID,0,VALID,100,VALID,0,VALID,18.8252,VALID,11,VALID,0.626698,
2008-08-22, 01:12:00,VALID,917.535,VALID,0.2,VALID,100,VALID,0,VALID,18.8217,VALID,23,VALID,0.0857677,
2008-08-22, 01:13:00,VALID,917.546,VALID,0.2,VALID,100,VALID,0.0339617,VALID,18.8085,VALID,18,VALID,0.0398247,
2008-08-22, 01:14:00,VALID,917.542,VALID,0,VALID,100,VALID,0,VALID,18.8023,VALID,21,VALID,0.648082,
2008-08-22, 01:15:00,VALID,917.527,VALID,0.2,VALID,100,VALID,0.0169808,VALID,18.8155,VALID,23,VALID,0.660442,
2008-08-22, 01:16:00,VALID,917.505,VALID,0.2,VALID,100,VALID,0.0169808,VALID,18.8118,VALID,4,VALID,0.765067,
2008-08-22, 01:17:00,VALID,917.47,VALID,0,VALID,100,VALID,0.0169808,VALID,18.8087,VALID,25,VALID,0.422433,
2008-08-22, 01:18:00,VALID,917.436,VALID,0.2,VALID,100,VALID,0,VALID,18.8247,VALID,19,VALID,0.543605,
2008-08-22, 01:19:00,VALID,917.376,VALID,0,VALID,100,VALID,0,VALID,18.8379,VALID,32,VALID,0.796875,
2008-08-22, 01:20:00,VALID,917.325,VALID,0,VALID,100,VALID,0,VALID,18.828,VALID,38,VALID,0.633789,
2008-08-22, 01:21:00,VALID,917.277,VALID,0.2,VALID,100,VALID,0,VALID,18.8516,VALID,28,VALID,0.652902,
2008-08-22, 01:22:00,VALID,917.223,VALID,0,VALID,100,VALID,0,VALID,18.8641,VALID,28,VALID,1.00372,
2008-08-22, 01:23:00,VALID,917.181,VALID,0,VALID,100,VALID,-0.0169808,VALID,18.8871,VALID,34,VALID,1.12295,
2008-08-22, 01:24:00,VALID,917.15,VALID,0,VALID,100,VALID,-0.0339617,VALID,18.9072,VALID,28,VALID,1.40843,
2008-08-22, 01:25:00,VALID,917.129,VALID,0.2,VALID,100,VALID,0,VALID,18.903,VALID,30,VALID,0.998512,
2008-08-22, 01:26:00,VALID,917.12,VALID,0,VALID,100,VALID,-0.0509425,VALID,18.9063,VALID,24,VALID,1.23047,
2008-08-22, 01:27:00,VALID,917.129,VALID,0,VALID,100,VALID,-0.0339617,VALID,18.9033,VALID,18,VALID,1.13299,
2008-08-22, 01:28:00,VALID,917.137,VALID,0,VALID,100,VALID,-0.0169808,VALID,18.91,VALID,22,VALID,0.837054,
2008-08-22, 01:29:00,VALID,917.147,VALID,0,VALID,100,VALID,-0.0169808,VALID,18.8903,VALID,19,VALID,0.990371,
2008-08-22, 01:30:00,VALID,917.164,VALID,0,VALID,100,VALID,-0.0169808,VALID,18.8803,VALID,23,VALID,0.807958,
2008-08-22, 01:31:00,VALID,917.184,VALID,0,VALID,100,VALID,0,VALID,18.8806,VALID,16,VALID,0.587891,
2008-08-22, 01:32:00,VALID,917.197,VALID,0,VALID,100,VALID,0,VALID,18.8674,VALID,357,VALID,0.549237,
2008-08-22, 01:33:00,VALID,917.209,VALID,0,VALID,100,VALID,0,VALID,18.8417,VALID,357,VALID,0.386905,
2008-08-22, 01:34:00,VALID,917.219,VALID,0,VALID,100,VALID,-0.0169808,VALID,18.8447,VALID,16,VALID,0.496838,
2008-08-22, 01:35:00,VALID,917.228,VALID,0.2,VALID,100,VALID,0,VALID,18.8414,VALID,23,VALID,0.630382,
2008-08-22, 01:36:00,VALID,917.235,VALID,0,VALID,100,VALID,-0.0169808,VALID,18.8349,VALID,353,VALID,0.547061,
2008-08-22, 01:37:00,VALID,917.252,VALID,0,VALID,100,VALID,0,VALID,18.822,VALID,8,VALID,0,
2008-08-22, 01:38:00,VALID,917.24,VALID,0,VALID,100,VALID,-0.0169808,VALID,18.8287,VALID,16,VALID,0,
2008-08-22, 01:39:00,VALID,917.236,VALID,0,VALID,100,VALID,-0.0339617,VALID,18.8159,VALID,5,VALID,0,
2008-08-22, 01:40:00,VALID,917.238,VALID,0,VALID,100,VALID,-0.0169808,VALID,18.8025,VALID,3,VALID,0,
2008-08-22, 01:41:00,VALID,917.224,VALID,0,VALID,100,VALID,0,VALID,18.8057,VALID,3,VALID,0,
2008-08-22, 01:42:00,VALID,917.244,VALID,0,VALID,100,VALID,-0.0169808,VALID,18.8187,VALID,9,VALID,0,
2008-08-22, 01:43:00,VALID,917.242,VALID,0,VALID,100,VALID,-0.0169808,VALID,18.8187,VALID,353,VALID,0,
2008-08-22, 01:44:00,VALID,917.25,VALID,0,VALID,100,VALID,0,VALID,18.8155,VALID,350,VALID,0,
2008-08-22, 01:45:00,VALID,917.261,VALID,0,VALID,100,VALID,-0.0169808,VALID,18.8349,VALID,358,VALID,0,
2008-08-22, 01:46:00,VALID,917.261,VALID,0,VALID,100,VALID,-0.0339617,VALID,18.8579,VALID,3,VALID,0,
2008-08-22, 01:47:00,VALID,917.274,VALID,0,VALID,100,VALID,-0.0339617,VALID,18.8739,VALID,3,VALID,0,
2008-08-22, 01:48:00,VALID,917.263,VALID,0,VALID,100,VALID,0,VALID,18.8968,VALID,7,VALID,0,
2008-08-22, 01:49:00,VALID,917.288,VALID,0,VALID,100,VALID,-0.0339617,VALID,18.8836,VALID,8,VALID,0,
2008-08-22, 01:50:00,VALID,917.289,VALID,0,VALID,100,VALID,-0.0339617,VALID,18.8933,VALID,8,VALID,0,
2008-08-22, 01:51:00,VALID,917.307,VALID,0,VALID,100,VALID,-0.0339617,VALID,18.8968,VALID,8,VALID,0,
2008-08-22, 01:52:00,VALID,917.313,VALID,0,VALID,100,VALID,-0.0169808,VALID,18.903,VALID,10,VALID,0,
2008-08-22, 01:53:00,VALID,917.314,VALID,0,VALID,100,VALID,0,VALID,18.9258,VALID,12,VALID,0,
2008-08-22, 01:54:00,VALID,917.308,VALID,0,VALID,100,VALID,-0.0169808,VALID,18.9128,VALID,20,VALID,0,
2008-08-22, 01:55:00,VALID,917.323,VALID,0,VALID,100,VALID,0,VALID,18.929,VALID,28,VALID,0.356534,
2008-08-22, 01:56:00,VALID,917.31,VALID,0,VALID,100,VALID,0,VALID,18.906,VALID,31,VALID,0.113372,
2008-08-22, 01:57:00,VALID,917.313,VALID,0,VALID,100,VALID,0,VALID,18.9063,VALID,31,VALID,0.00550426,
2008-08-22, 01:58:00,VALID,917.309,VALID,0,VALID,100,VALID,-0.0339617,VALID,18.916,VALID,31,VALID,0,
2008-08-22, 01:59:00,VALID,917.308,VALID,0,VALID,100,VALID,0,VALID,18.9163,VALID,30,VALID,0,
2008-08-22, 02:00:00,VALID,917.309,VALID,0,VALID,100,VALID,-0.0169808,VALID,18.8933,VALID,24,VALID,0.00874256,
2008-08-22, 02:01:00,VALID,917.299,VALID,0,VALID,100,VALID,-0.0169808,VALID,18.8868,VALID,13,VALID,0.538154,
2008-08-22, 02:02:00,VALID,917.278,VALID,0,VALID,100,VALID,-0.0339617,VALID,18.8674,VALID,8,VALID,0.1875,
2008-08-22, 02:03:00,VALID,917.267,VALID,0,VALID,100,VALID,-0.0169808,VALID,18.8641,VALID,8,VALID,0,
2008-08-22, 02:04:00,VALID,917.259,VALID,0,VALID,100,VALID,-0.0169808,VALID,18.8838,VALID,8,VALID,0,
2008-08-22, 02:05:00,VALID,917.252,VALID,0,VALID,100,VALID,-0.0169808,VALID,18.8776,VALID,6,VALID,0,
2008-08-22, 02:06:00,VALID,917.229,VALID,0,VALID,100,VALID,0,VALID,18.8574,VALID,347,VALID,0,
2008-08-22, 02:07:00,VALID,917.236,VALID,0,VALID,100,VALID,-0.0169808,VALID,18.8449,VALID,347,VALID,0.116629,
2008-08-22, 02:08:00,VALID,917.225,VALID,0,VALID,100,VALID,-0.0169808,VALID,18.8447,VALID,347,VALID,0,
2008-08-22, 02:09:00,VALID,917.233,VALID,0,VALID,100,VALID,-0.0339617,VALID,18.8477,VALID,347,VALID,0,
2008-08-22, 02:10:00,VALID,917.236,VALID,0,VALID,100,VALID,-0.0169808,VALID,18.8581,VALID,347,VALID,0,
2008-08-22, 02:11:00,VALID,917.234,VALID,0,VALID,100,VALID,-0.0339617,VALID,18.8609,VALID,347,VALID,0,
2008-08-22, 02:12:00,VALID,917.245,VALID,0,VALID,100,VALID,-0.0169808,VALID,18.8933,VALID,347,VALID,0,
2008-08-22, 02:13:00,VALID,917.25,VALID,0,VALID,100,VALID,-0.0339617,VALID,18.8933,VALID,347,VALID,0,
2008-08-22, 02:14:00,VALID,917.264,VALID,0,VALID,100,VALID,-0.0339617,VALID,18.904,VALID,347,VALID,0,
2008-08-22, 02:15:00,VALID,917.269,VALID,0,VALID,100,VALID,-0.0509425,VALID,18.9033,VALID,347,VALID,0,
2008-08-22, 02:16:00,VALID,917.299,VALID,0,VALID,100,VALID,-0.0509425,VALID,18.9128,VALID,347,VALID,0,
2008-08-22, 02:17:00,VALID,917.322,VALID,0,VALID,100,VALID,-0.0339617,VALID,18.9133,VALID,347,VALID,0,
2008-08-22, 02:18:00,VALID,917.306,VALID,0,VALID,100,VALID,0,VALID,18.9227,VALID,347,VALID,0,
2008-08-22, 02:19:00,VALID,917.303,VALID,0,VALID,100,VALID,-0.0169808,VALID,18.9457,VALID,347,VALID,0,
2008-08-22, 02:20:00,VALID,917.304,VALID,0,VALID,100,VALID,-0.0169808,VALID,18.9549,VALID,347,VALID,0,
2008-08-22, 02:21:00,VALID,917.293,VALID,0,VALID,100,VALID,0,VALID,18.9709,VALID,347,VALID,0,
2008-08-22, 02:22:00,VALID,917.281,VALID,0,VALID,100,VALID,0.0679233,VALID,18.9672,VALID,347,VALID,0,
2008-08-22, 02:23:00,VALID,917.267,VALID,0,VALID,100,VALID,0.0169808,VALID,18.9679,VALID,347,VALID,0,
2008-08-22, 02:24:00,VALID,917.269,VALID,0,VALID,100,VALID,0.0169808,VALID,18.9545,VALID,347,VALID,0,
2008-08-22, 02:25:00,VALID,917.238,VALID,0,VALID,100,VALID,0.0169808,VALID,18.9318,VALID,347,VALID,0,
2008-08-22, 02:26:00,VALID,917.226,VALID,0,VALID,100,VALID,0,VALID,18.9193,VALID,347,VALID,0,
2008-08-22, 02:27:00,VALID,917.223,VALID,0,VALID,100,VALID,0,VALID,18.916,VALID,340,VALID,0,
2008-08-22, 02:28:00,VALID,917.213,VALID,0,VALID,100,VALID,0,VALID,18.9063,VALID,337,VALID,0,
2008-08-22, 02:29:00,VALID,917.198,VALID,0,VALID,100,VALID,0,VALID,18.9028,VALID,337,VALID,0,
2008-08-22, 02:30:00,VALID,917.197,VALID,0,VALID,100,VALID,-0.0169808,VALID,18.9003,VALID,337,VALID,0,
2008-08-22, 02:31:00,VALID,917.194,VALID,0,VALID,100,VALID,0,VALID,18.9033,VALID,337,VALID,0,
2008-08-22, 02:32:00,VALID,917.197,VALID,0,VALID,100,VALID,-0.0169808,VALID,18.9095,VALID,337,VALID,0,
2008-08-22, 02:33:00,VALID,917.21,VALID,0,VALID,100,VALID,0,VALID,18.9125,VALID,337,VALID,0,
2008-08-22, 02:34:00,VALID,917.208,VALID,0,VALID,100,VALID,0,VALID,18.9452,VALID,337,VALID,0,
2008-08-22, 02:35:00,VALID,917.19,VALID,0,VALID,100,VALID,0,VALID,18.9547,VALID,20,VALID,0.314135,
2008-08-22, 02:36:00,VALID,917.188,VALID,0,VALID,100,VALID,0,VALID,18.9712,VALID,33,VALID,0.225109,
2008-08-22, 02:37:00,VALID,917.181,VALID,0,VALID,100,VALID,0,VALID,18.9939,VALID,38,VALID,0.295922,
2008-08-22, 02:38:00,VALID,917.175,VALID,0,VALID,100,VALID,0,VALID,18.9936,VALID,41,VALID,0.305078,
2008-08-22, 02:39:00,VALID,917.163,VALID,0,VALID,100,VALID,0,VALID,18.9776,VALID,39,VALID,0,
2008-08-22, 02:40:00,VALID,917.149,VALID,0,VALID,100,VALID,0.0169808,VALID,18.9901,VALID,38,VALID,0,
2008-08-22, 02:41:00,VALID,917.141,VALID,0,VALID,100,VALID,0.0169808,VALID,18.9806,VALID,38,VALID,0,
2008-08-22, 02:42:00,VALID,917.117,VALID,0,VALID,100,VALID,0.0339617,VALID,18.9867,VALID,38,VALID,0,
2008-08-22, 02:43:00,VALID,917.107,VALID,0,VALID,100,VALID,0.0169808,VALID,18.9939,VALID,38,VALID,0.025436,
2008-08-22, 02:44:00,VALID,917.087,VALID,0,VALID,100,VALID,0.0339617,VALID,18.9769,VALID,34,VALID,0.618075,
2008-08-22, 02:45:00,VALID,917.08,VALID,0,VALID,100,VALID,0.0169808,VALID,18.9809,VALID,33,VALID,0.460379,
2008-08-22, 02:46:00,VALID,917.08,VALID,0,VALID,100,VALID,0,VALID,18.9904,VALID,32,VALID,0.701389,
2008-08-22, 02:47:00,VALID,917.063,VALID,0,VALID,100,VALID,-0.0339617,VALID,18.9871,VALID,29,VALID,0.543605,
2008-08-22, 02:48:00,VALID,917.075,VALID,0,VALID,100,VALID,0,VALID,18.9871,VALID,33,VALID,0.815476,
2008-08-22, 02:49:00,VALID,917.058,VALID,0,VALID,100,VALID,0,VALID,18.9742,VALID,29,VALID,0.444922,
2008-08-22, 02:50:00,VALID,917.051,VALID,0,VALID,100,VALID,-0.0169808,VALID,18.9579,VALID,21,VALID,0.563988,
2008-08-22, 02:51:00,VALID,917.037,VALID,0,VALID,100,VALID,0,VALID,18.9382,VALID,5,VALID,0.651634,
2008-08-22, 02:52:00,VALID,917.029,VALID,0,VALID,100,VALID,-0.0169808,VALID,18.932,VALID,14,VALID,0.551829,
2008-08-22, 02:53:00,VALID,917.003,VALID,0,VALID,100,VALID,0,VALID,18.9322,VALID,15,VALID,0.00706845,
2008-08-22, 02:54:00,VALID,917,VALID,0,VALID,100,VALID,0,VALID,18.9225,VALID,20,VALID,0.0713141,
2008-08-22, 02:55:00,VALID,917.001,VALID,0,VALID,100,VALID,0,VALID,18.9318,VALID,29,VALID,0.280664,
2008-08-22, 02:56:00,VALID,916.975,VALID,0,VALID,100,VALID,0,VALID,18.9253,VALID,29,VALID,0,
2008-08-22, 02:57:00,VALID,916.973,VALID,0,VALID,100,VALID,0,VALID,18.9417,VALID,29,VALID,0,
2008-08-22, 02:58:00,VALID,916.964,VALID,0,VALID,100,VALID,0.0169808,VALID,18.9385,VALID,29,VALID,0,
2008-08-22, 02:59:00,VALID,916.957,VALID,0,VALID,100,VALID,-0.0169808,VALID,18.9225,VALID,29,VALID,0,
2008-08-22, 03:00:00,VALID,916.947,VALID,0,VALID,100,VALID,0,VALID,18.919,VALID,29,VALID,0.0195313,
2008-08-22, 03:01:00,VALID,916.944,VALID,0,VALID,100,VALID,0.0169808,VALID,18.9033,VALID,38,VALID,0.639824,
2008-08-22, 03:02:00,VALID,916.963,VALID,0,VALID,100,VALID,0,VALID,18.8898,VALID,38,VALID,0.73418,
2008-08-22, 03:03:00,VALID,916.964,VALID,0,VALID,100,VALID,0.0339617,VALID,18.8933,VALID,39,VALID,0.848544,
2008-08-22, 03:04:00,VALID,916.963,VALID,0,VALID,100,VALID,0,VALID,18.8963,VALID,23,VALID,0.264323,
2008-08-22, 03:05:00,VALID,916.962,VALID,0,VALID,100,VALID,0.0339617,VALID,18.8799,VALID,340,VALID,0.413699,
2008-08-22, 03:06:00,VALID,916.961,VALID,0,VALID,100,VALID,0.0339617,VALID,18.8539,VALID,340,VALID,0,
2008-08-22, 03:07:00,VALID,916.969,VALID,0,VALID,100,VALID,-0.0169808,VALID,18.8542,VALID,340,VALID,0,
2008-08-22, 03:08:00,VALID,916.958,VALID,0,VALID,100,VALID,0,VALID,18.8836,VALID,340,VALID,0,
2008-08-22, 03:09:00,VALID,916.945,VALID,0,VALID,100,VALID,0.0169808,VALID,18.8996,VALID,347,VALID,0,
2008-08-22, 03:10:00,VALID,916.95,VALID,0,VALID,100,VALID,0.0169808,VALID,18.8766,VALID,349,VALID,0,
2008-08-22, 03:11:00,VALID,916.964,VALID,0,VALID,100,VALID,-0.0169808,VALID,18.8933,VALID,20,VALID,0.0744913,
2008-08-22, 03:12:00,VALID,916.96,VALID,0,VALID,100,VALID,0,VALID,18.8829,VALID,50,VALID,0,
2008-08-22, 03:13:00,VALID,916.971,VALID,0,VALID,100,VALID,0,VALID,18.8609,VALID,53,VALID,0,
2008-08-22, 03:14:00,VALID,916.975,VALID,0,VALID,100,VALID,0,VALID,18.8474,VALID,49,VALID,0,
2008-08-22, 03:15:00,VALID,916.97,VALID,0,VALID,100,VALID,0,VALID,18.8771,VALID,51,VALID,0,
2008-08-22, 03:16:00,VALID,916.961,VALID,0,VALID,100,VALID,0,VALID,18.8766,VALID,63,VALID,0.544085,
2008-08-22, 03:17:00,VALID,916.966,VALID,0,VALID,100,VALID,0,VALID,18.8831,VALID,62,VALID,0.662642,
2008-08-22, 03:18:00,VALID,916.962,VALID,0,VALID,100,VALID,0.0169808,VALID,18.8636,VALID,62,VALID,0.934295,
2008-08-22, 03:19:00,VALID,916.962,VALID,0,VALID,100,VALID,0,VALID,18.8544,VALID,59,VALID,1.04467,
2008-08-22, 03:20:00,VALID,916.964,VALID,0,VALID,100,VALID,-0.0169808,VALID,18.8479,VALID,55,VALID,1.22656,
2008-08-22, 03:21:00,VALID,916.961,VALID,0,VALID,100,VALID,0,VALID,18.8352,VALID,47,VALID,1.07813,
2008-08-22, 03:22:00,VALID,916.947,VALID,0,VALID,100,VALID,-0.0339617,VALID,18.8511,VALID,36,VALID,0.636889,
2008-08-22, 03:23:00,VALID,916.97,VALID,0,VALID,100,VALID,0,VALID,18.8674,VALID,38,VALID,0.341797,
2008-08-22, 03:24:00,VALID,916.945,VALID,0.2,VALID,100,VALID,-0.0169808,VALID,18.8739,VALID,55,VALID,0.43129,
2008-08-22, 03:25:00,VALID,916.946,VALID,0,VALID,100,VALID,-0.0169808,VALID,18.8549,VALID,42,VALID,0.873666,
2008-08-22, 03:26:00,VALID,916.936,VALID,0,VALID,100,VALID,-0.0169808,VALID,18.8444,VALID,41,VALID,0.713415,
2008-08-22, 03:27:00,VALID,916.942,VALID,0,VALID,100,VALID,-0.0339617,VALID,18.8544,VALID,41,VALID,0.574591,
2008-08-22, 03:28:00,VALID,916.932,VALID,0,VALID,100,VALID,0,VALID,18.8284,VALID,71,VALID,0.819767,
2008-08-22, 03:29:00,VALID,916.927,VALID,0,VALID,100,VALID,-0.0169808,VALID,18.8122,VALID,73,VALID,0.103743,
2008-08-22, 03:30:00,VALID,916.934,VALID,0.2,VALID,100,VALID,-0.0169808,VALID,18.8155,VALID,72,VALID,0,
2008-08-22, 03:31:00,VALID,916.928,VALID,0,VALID,100,VALID,-0.0169808,VALID,18.8122,VALID,75,VALID,0.282422,
2008-08-22, 03:32:00,VALID,916.943,VALID,0.2,VALID,100,VALID,-0.0339617,VALID,18.8127,VALID,77,VALID,0,
2008-08-22, 03:33:00,VALID,916.941,VALID,0.2,VALID,100,VALID,-0.0509425,VALID,18.809,VALID,74,VALID,0,
2008-08-22, 03:34:00,VALID,916.953,VALID,0.2,VALID,100,VALID,-0.0169808,VALID,18.8122,VALID,60,VALID,0.5129,
2008-08-22, 03:35:00,VALID,916.953,VALID,0,VALID,100,VALID,-0.0169808,VALID,18.8252,VALID,65,VALID,0.75465,
2008-08-22, 03:36:00,VALID,916.959,VALID,0.2,VALID,100,VALID,0,VALID,18.799,VALID,70,VALID,0.83939,
2008-08-22, 03:37:00,VALID,916.968,VALID,0,VALID,100,VALID,0,VALID,18.7863,VALID,70,VALID,0.988281,
2008-08-22, 03:38:00,VALID,916.963,VALID,0.2,VALID,100,VALID,-0.0509425,VALID,18.7798,VALID,73,VALID,0.717634,
2008-08-22, 03:39:00,VALID,916.982,VALID,0.2,VALID,100,VALID,0,VALID,18.7694,VALID,76,VALID,0.483984,
2008-08-22, 03:40:00,VALID,916.982,VALID,0,VALID,100,VALID,-0.0339617,VALID,18.7768,VALID,76,VALID,0.594131,
2008-08-22, 03:41:00,VALID,916.982,VALID,0.2,VALID,100,VALID,-0.0339617,VALID,18.7636,VALID,78,VALID,0.551172,
2008-08-22, 03:42:00,VALID,916.977,VALID,0.2,VALID,100,VALID,0,VALID,18.7668,VALID,77,VALID,0.285547,
2008-08-22, 03:43:00,VALID,916.984,VALID,0.2,VALID,100,VALID,-0.0169808,VALID,18.7566,VALID,83,VALID,0,
2008-08-22, 03:44:00,VALID,916.973,VALID,0.2,VALID,100,VALID,0,VALID,18.7636,VALID,84,VALID,0,
2008-08-22, 03:45:00,VALID,916.966,VALID,0.2,VALID,100,VALID,-0.0169808,VALID,18.7636,VALID,88,VALID,0,
2008-08-22, 03:46:00,VALID,916.949,VALID,0.2,VALID,100,VALID,0,VALID,18.7538,VALID,88,VALID,0,
2008-08-22, 03:47:00,VALID,916.94,VALID,0,VALID,100,VALID,0,VALID,18.7571,VALID,89,VALID,0,
2008-08-22, 03:48:00,VALID,916.946,VALID,0.2,VALID,100,VALID,-0.0339617,VALID,18.7668,VALID,106,VALID,0,